Home   Weather   Oakville   Past weeks

Flag for Canada Past Weather in Oakville, Ontario, Canada — Yesterday and Last 2 Weeks

Now
46 °F

Cool.


Feels Like: 42 °F
Forecast: 44 / 62 °F
Wind: 9 mph from Northeast

Location: Burlington Piers

Current Time: Apr 27, 2017 at 4:34:06 pm

Latest Report: Apr 27, 2017 at 4:00 pm


Visibility: N/A

Pressure: 29.55 "Hg

Humidity: 92%

Dew Point: 44 °F

Location of OakvilleLocation

Past Weather in Oakville — Graph

°F

Oakville Temperature Yesterday

Maximum temperature yesterday: 51 °F (at 11:00 pm)
Minimum temperature yesterday: 43 °F (at 3:00 pm)
Average temperature yesterday: 46 °F

High & Low Weather Summary for the Past Weeks

 TemperatureHumidityPressure
High71 °F (Apr 16, 3:00 pm)100% (Apr 20, 12:00 pm)30.53 "Hg (Apr 20, 12:00 pm)
Low36 °F (Apr 18, 5:00 am)24% (Apr 23, 5:00 pm)29.57 "Hg (Apr 27, 3:00 pm)
Average47 °F72%30.07 "Hg
* Reported Apr 12 3:00 pm — Apr 27 3:00 pm, Oakville, Weather by CustomWeather, © 2017

Note: Actual official high and low records may vary slightly from our data, if they occured in-between our weather recording intervals... More about our weather records

Advertising

Oakville Weather History for the Previous 24 Hours

Scroll right to see more
 ConditionsComfort  
Time TempWeatherWind HumidityBarometerVisibility
3:00 pm
Thu, Apr 27
47 °FCool.10 mph90%29.57 "HgN/A
2:00 pm46 °FCool.8 mph90%29.61 "HgN/A
1:00 pm45 °FCool.8 mph91%29.62 "HgN/A
12:00 pm45 °FCool.9 mph93%29.64 "HgN/A
11:00 am45 °FCool.12 mph93%29.65 "HgN/A
10:00 am45 °FCool.7 mph92%29.66 "HgN/A
9:00 am45 °FQuite cool.6 mph91%29.67 "HgN/A
8:00 am44 °FQuite cool.8 mph92%29.66 "HgN/A
7:00 am44 °FQuite cool.8 mph94%29.66 "HgN/A
6:00 am44 °FQuite cool.8 mph95%29.66 "HgN/A
5:00 am45 °FQuite cool.8 mph95%29.66 "HgN/A
4:00 am45 °FCool.8 mph95%29.66 "HgN/A
3:00 am46 °FCool.7 mph95%29.66 "HgN/A
2:00 am48 °FCool.7 mph96%29.67 "HgN/A
1:00 am49 °FCool.5 mph95%29.68 "HgN/A
12:00 am50 °FCool.5 mph95%29.70 "HgN/A
11:00 pm
Wed, Apr 26
51 °FCool.6 mph93%29.70 "HgN/A
10:00 pm51 °FCool.6 mph92%29.71 "HgN/A
9:00 pm51 °FCool.6 mph89%29.70 "HgN/A
8:00 pm48 °FCool.6 mph91%29.70 "HgN/A
7:00 pm46 °FCool.7 mph93%29.69 "HgN/A
6:00 pm45 °FCool.6 mph94%29.70 "HgN/A
5:00 pm44 °FQuite cool.6 mph95%29.71 "HgN/A
4:00 pm43 °FQuite cool.9 mph93%29.73 "HgN/A
Weather by CustomWeather, © 2017

See weather overviewHow to use our weather pages